Year,Month,Day,Hour,Minute,Value (Times are PST for temperature in C)
2011,05,24,00,00,7.90
2011,05,24,00,01,7.90
2011,05,24,00,02,7.90
2011,05,24,00,03,7.90
2011,05,24,00,04,7.80
2011,05,24,00,05,7.80
2011,05,24,00,06,7.80
2011,05,24,00,07,7.80
2011,05,24,00,08,7.80
2011,05,24,00,09,7.70
2011,05,24,00,10,7.70
2011,05,24,00,11,7.70
2011,05,24,00,12,7.70
2011,05,24,00,13,7.70
2011,05,24,00,14,7.70
2011,05,24,00,15,7.60
2011,05,24,00,16,7.60
2011,05,24,00,17,7.60
2011,05,24,00,18,7.60
2011,05,24,00,19,7.60
2011,05,24,00,20,7.60
2011,05,24,00,21,7.50
2011,05,24,00,22,7.50
2011,05,24,00,23,7.50
2011,05,24,00,24,7.50
2011,05,24,00,25,7.40
2011,05,24,00,26,7.40
2011,05,24,00,27,7.40
2011,05,24,00,28,7.40
2011,05,24,00,29,7.40
2011,05,24,00,30,7.40
2011,05,24,00,31,7.40
2011,05,24,00,32,7.40
2011,05,24,00,33,7.30
2011,05,24,00,34,7.30
2011,05,24,00,35,7.30
2011,05,24,00,36,7.30
2011,05,24,00,37,7.30
2011,05,24,00,38,7.30
2011,05,24,00,39,7.30
2011,05,24,00,40,7.30
2011,05,24,00,41,7.30
2011,05,24,00,42,7.30
2011,05,24,00,43,7.30
2011,05,24,00,44,7.20
2011,05,24,00,45,7.20
2011,05,24,00,46,7.20
2011,05,24,00,47,7.20
2011,05,24,00,48,7.20
2011,05,24,00,49,7.20
2011,05,24,00,50,7.20
2011,05,24,00,51,7.20
2011,05,24,00,52,7.20
2011,05,24,00,53,7.20
2011,05,24,00,54,7.20
2011,05,24,00,55,7.10
2011,05,24,00,56,7.10
2011,05,24,00,57,7.10
2011,05,24,00,58,7.10
2011,05,24,00,59,7.10
2011,05,24,01,00,7.00
2011,05,24,01,01,7.00
2011,05,24,01,02,7.00
2011,05,24,01,03,7.00
2011,05,24,01,04,7.00
2011,05,24,01,05,7.00
2011,05,24,01,06,6.90
2011,05,24,01,07,6.90
2011,05,24,01,08,6.90
2011,05,24,01,09,7.00
2011,05,24,01,10,7.10
2011,05,24,01,11,7.10
2011,05,24,01,12,7.20
2011,05,24,01,13,7.20
2011,05,24,01,14,7.30
2011,05,24,01,15,7.30
2011,05,24,01,16,7.30
2011,05,24,01,17,7.30
2011,05,24,01,18,7.30
2011,05,24,01,19,7.30
2011,05,24,01,20,7.40
2011,05,24,01,21,7.40
2011,05,24,01,22,7.40
2011,05,24,01,23,7.40
2011,05,24,01,24,7.50
2011,05,24,01,25,7.50
2011,05,24,01,26,7.50
2011,05,24,01,27,7.60
2011,05,24,01,28,7.60
2011,05,24,01,29,7.60
2011,05,24,01,30,7.70
2011,05,24,01,31,7.70
2011,05,24,01,32,7.80
2011,05,24,01,33,7.90
2011,05,24,01,34,8.00
2011,05,24,01,35,8.10
2011,05,24,01,36,8.10
2011,05,24,01,37,8.20
2011,05,24,01,38,8.20
2011,05,24,01,39,8.30
2011,05,24,01,40,8.30
2011,05,24,01,41,8.30
2011,05,24,01,42,8.30
2011,05,24,01,43,8.30
2011,05,24,01,44,8.30
2011,05,24,01,45,8.40
2011,05,24,01,46,8.40
2011,05,24,01,47,8.40
2011,05,24,01,48,8.40
2011,05,24,01,49,8.30
2011,05,24,01,50,8.30
2011,05,24,01,51,8.30
2011,05,24,01,52,8.30
2011,05,24,01,53,8.30
2011,05,24,01,54,8.30
2011,05,24,01,55,8.30
2011,05,24,01,56,8.30
2011,05,24,01,57,8.30
2011,05,24,01,58,8.30
2011,05,24,01,59,8.20
2011,05,24,02,00,8.20
2011,05,24,02,01,8.20
2011,05,24,02,02,8.20
2011,05,24,02,03,8.10
2011,05,24,02,04,8.10
2011,05,24,02,05,8.10
2011,05,24,02,06,8.10
2011,05,24,02,07,8.00
2011,05,24,02,08,8.00
2011,05,24,02,09,7.90
2011,05,24,02,10,7.90
2011,05,24,02,11,7.90
2011,05,24,02,12,7.80
2011,05,24,02,13,7.80
2011,05,24,02,14,7.80
2011,05,24,02,15,7.80
2011,05,24,02,16,7.70
2011,05,24,02,17,7.70
2011,05,24,02,18,7.70
2011,05,24,02,19,7.60
2011,05,24,02,20,7.60
2011,05,24,02,21,7.60
2011,05,24,02,22,7.50
2011,05,24,02,23,7.50
2011,05,24,02,24,7.50
2011,05,24,02,25,7.40
2011,05,24,02,26,7.40
2011,05,24,02,27,7.40
2011,05,24,02,28,7.30
2011,05,24,02,29,7.30
2011,05,24,02,30,7.30
2011,05,24,02,31,7.30
2011,05,24,02,32,7.20
2011,05,24,02,33,7.20
2011,05,24,02,34,7.20
2011,05,24,02,35,7.20
2011,05,24,02,36,7.20
2011,05,24,02,37,7.10
2011,05,24,02,38,7.10
2011,05,24,02,39,7.10
2011,05,24,02,40,7.00
2011,05,24,02,41,7.00
2011,05,24,02,42,7.00
2011,05,24,02,43,6.90
2011,05,24,02,44,6.90
2011,05,24,02,45,6.90
2011,05,24,02,46,6.90
2011,05,24,02,47,6.90
2011,05,24,02,48,6.90
2011,05,24,02,49,6.80
2011,05,24,02,50,6.80
2011,05,24,02,51,6.80
2011,05,24,02,52,6.80
2011,05,24,02,53,6.80
2011,05,24,02,54,6.80
2011,05,24,02,55,6.80
2011,05,24,02,56,6.80
2011,05,24,02,57,6.70
2011,05,24,02,58,6.70
2011,05,24,02,59,6.70
2011,05,24,03,00,6.70
2011,05,24,03,01,6.70
2011,05,24,03,02,6.70
2011,05,24,03,03,6.60
2011,05,24,03,04,6.60
2011,05,24,03,05,6.60
2011,05,24,03,06,6.60
2011,05,24,03,07,6.60
2011,05,24,03,08,6.60
2011,05,24,03,09,6.60
2011,05,24,03,10,6.60
2011,05,24,03,11,6.60
2011,05,24,03,12,6.60
2011,05,24,03,13,6.60
2011,05,24,03,14,6.50
2011,05,24,03,15,6.60
2011,05,24,03,16,6.60
2011,05,24,03,17,6.50
2011,05,24,03,18,6.60
2011,05,24,03,19,6.50
2011,05,24,03,20,6.50
2011,05,24,03,21,6.50
2011,05,24,03,22,6.50
2011,05,24,03,23,6.40
2011,05,24,03,24,6.40
2011,05,24,03,25,6.40
2011,05,24,03,26,6.30
2011,05,24,03,27,6.30
2011,05,24,03,28,6.30
2011,05,24,03,29,6.30
2011,05,24,03,30,6.30
2011,05,24,03,31,6.20
2011,05,24,03,32,6.20
2011,05,24,03,33,6.20
2011,05,24,03,34,6.20
2011,05,24,03,35,6.10
2011,05,24,03,36,6.10
2011,05,24,03,37,6.10
2011,05,24,03,38,6.10
2011,05,24,03,39,6.10
2011,05,24,03,40,6.10
2011,05,24,03,41,6.00
2011,05,24,03,42,6.00
2011,05,24,03,43,6.00
2011,05,24,03,44,6.00
2011,05,24,03,45,6.00
2011,05,24,03,46,5.90
2011,05,24,03,47,5.90
2011,05,24,03,48,5.90
2011,05,24,03,49,5.90
2011,05,24,03,50,5.90
2011,05,24,03,51,5.80
2011,05,24,03,52,5.80
2011,05,24,03,53,5.80
2011,05,24,03,54,5.80
2011,05,24,03,55,5.80
2011,05,24,03,56,5.80
2011,05,24,03,57,5.80
2011,05,24,03,58,5.80
2011,05,24,03,59,5.70
2011,05,24,04,00,5.70
2011,05,24,04,01,5.70
2011,05,24,04,02,5.70
2011,05,24,04,03,5.70
2011,05,24,04,04,5.70
2011,05,24,04,05,5.70
2011,05,24,04,06,5.70
2011,05,24,04,07,5.70
2011,05,24,04,08,5.70
2011,05,24,04,09,5.60
2011,05,24,04,10,5.60
2011,05,24,04,11,5.60
2011,05,24,04,12,5.60
2011,05,24,04,13,5.60
2011,05,24,04,14,5.60
2011,05,24,04,15,5.60
2011,05,24,04,16,5.60
2011,05,24,04,17,5.60
2011,05,24,04,18,5.50
2011,05,24,04,19,5.50
2011,05,24,04,20,5.50
2011,05,24,04,21,5.50
2011,05,24,04,22,5.50
2011,05,24,04,23,5.50
2011,05,24,04,24,5.40
2011,05,24,04,25,5.40
2011,05,24,04,26,5.40
2011,05,24,04,27,5.40
2011,05,24,04,28,5.40
2011,05,24,04,29,5.40
2011,05,24,04,30,5.40
2011,05,24,04,31,5.40
2011,05,24,04,32,5.30
2011,05,24,04,33,5.30
2011,05,24,04,34,5.30
2011,05,24,04,35,5.30
2011,05,24,04,36,5.30
2011,05,24,04,37,5.30
2011,05,24,04,38,5.30
2011,05,24,04,39,5.30
2011,05,24,04,40,5.30
2011,05,24,04,41,5.30
2011,05,24,04,42,5.30
2011,05,24,04,43,5.30
2011,05,24,04,44,5.30
2011,05,24,04,45,5.30
2011,05,24,04,46,5.30
2011,05,24,04,47,5.30
2011,05,24,04,48,5.30
2011,05,24,04,49,5.30
2011,05,24,04,50,5.30
2011,05,24,04,51,5.30
2011,05,24,04,52,5.30
2011,05,24,04,53,5.30
2011,05,24,04,54,5.30
2011,05,24,04,55,5.30
2011,05,24,04,56,5.30
2011,05,24,04,57,5.30
2011,05,24,04,58,5.30
2011,05,24,04,59,5.30
2011,05,24,05,00,5.30
2011,05,24,05,01,5.30
2011,05,24,05,02,5.30
2011,05,24,05,03,5.30
2011,05,24,05,04,5.30
2011,05,24,05,05,5.30
2011,05,24,05,06,5.30
2011,05,24,05,07,5.30
2011,05,24,05,08,5.30
2011,05,24,05,09,5.30
2011,05,24,05,10,5.30
2011,05,24,05,11,5.20
2011,05,24,05,12,5.20
2011,05,24,05,13,5.20
2011,05,24,05,14,5.20
2011,05,24,05,15,5.30
2011,05,24,05,16,5.30
2011,05,24,05,17,5.30
2011,05,24,05,18,5.30
2011,05,24,05,19,5.30
2011,05,24,05,20,5.30
2011,05,24,05,21,5.30
2011,05,24,05,22,5.30
2011,05,24,05,23,5.40
2011,05,24,05,24,5.30
2011,05,24,05,25,5.30
2011,05,24,05,26,5.30
2011,05,24,05,27,5.30
2011,05,24,05,28,5.30
2011,05,24,05,29,5.30
2011,05,24,05,30,5.30
2011,05,24,05,31,5.30
2011,05,24,05,32,5.30
2011,05,24,05,33,5.30
2011,05,24,05,34,5.30
2011,05,24,05,35,5.40
2011,05,24,05,36,5.40
2011,05,24,05,37,5.40
2011,05,24,05,38,5.50
2011,05,24,05,39,5.50
2011,05,24,05,40,5.60
2011,05,24,05,41,5.60
2011,05,24,05,42,5.70
2011,05,24,05,43,5.70
2011,05,24,05,44,5.80
2011,05,24,05,45,5.90
2011,05,24,05,46,5.90
2011,05,24,05,47,6.00
2011,05,24,05,48,6.00
2011,05,24,05,49,6.10
2011,05,24,05,50,6.20
2011,05,24,05,51,6.40
2011,05,24,05,52,6.50
2011,05,24,05,53,6.60
2011,05,24,05,54,6.70
2011,05,24,05,55,6.90
2011,05,24,05,56,7.00
2011,05,24,05,57,7.10
2011,05,24,05,58,7.30
2011,05,24,05,59,7.40
2011,05,24,06,00,7.50
2011,05,24,06,01,7.60
2011,05,24,06,02,7.70
2011,05,24,06,03,7.80
2011,05,24,06,04,8.00
2011,05,24,06,05,8.10
2011,05,24,06,06,8.20
2011,05,24,06,07,8.20
2011,05,24,06,08,8.30
2011,05,24,06,09,8.40
2011,05,24,06,10,8.40
2011,05,24,06,11,8.50
2011,05,24,06,12,8.60
2011,05,24,06,13,8.60
2011,05,24,06,14,8.60
2011,05,24,06,15,8.60
2011,05,24,06,16,8.70
2011,05,24,06,17,8.70
2011,05,24,06,18,8.70
2011,05,24,06,19,8.80
2011,05,24,06,20,8.80
2011,05,24,06,21,8.90
2011,05,24,06,22,8.90
2011,05,24,06,23,8.90
2011,05,24,06,24,9.00
2011,05,24,06,25,9.00
2011,05,24,06,26,9.10
2011,05,24,06,27,9.10
2011,05,24,06,28,9.10
2011,05,24,06,29,9.20
2011,05,24,06,30,9.20
2011,05,24,06,31,9.20
2011,05,24,06,32,9.20
2011,05,24,06,33,9.30
2011,05,24,06,34,9.30
2011,05,24,06,35,9.40
2011,05,24,06,36,9.50
2011,05,24,06,37,9.50
2011,05,24,06,38,9.50
2011,05,24,06,39,9.60
2011,05,24,06,40,9.60
2011,05,24,06,41,9.60
2011,05,24,06,42,9.60
2011,05,24,06,43,9.60
2011,05,24,06,44,9.70
2011,05,24,06,45,9.70
2011,05,24,06,46,9.80
2011,05,24,06,47,9.80
2011,05,24,06,48,9.80
2011,05,24,06,49,9.80
2011,05,24,06,50,9.90
2011,05,24,06,51,9.90
2011,05,24,06,52,9.90
2011,05,24,06,53,10.00
2011,05,24,06,54,10.00
2011,05,24,06,55,10.10
2011,05,24,06,56,10.10
2011,05,24,06,57,10.20
2011,05,24,06,58,10.20
2011,05,24,06,59,10.30
2011,05,24,07,00,10.30
2011,05,24,07,01,10.30
2011,05,24,07,02,10.40
2011,05,24,07,03,10.40
2011,05,24,07,04,10.40
2011,05,24,07,05,10.50
2011,05,24,07,06,10.50
2011,05,24,07,07,10.50
2011,05,24,07,08,10.60
2011,05,24,07,09,10.60
2011,05,24,07,10,10.60
2011,05,24,07,11,10.60
2011,05,24,07,12,10.60
2011,05,24,07,13,10.60
2011,05,24,07,14,10.70
2011,05,24,07,15,10.70
2011,05,24,07,16,10.80
2011,05,24,07,17,10.80
2011,05,24,07,18,10.80
2011,05,24,07,19,10.80
2011,05,24,07,20,10.80
2011,05,24,07,21,10.90
2011,05,24,07,22,10.90
2011,05,24,07,23,10.90
2011,05,24,07,24,11.00
2011,05,24,07,25,11.00
2011,05,24,07,26,11.10
2011,05,24,07,27,11.10
2011,05,24,07,28,11.20
2011,05,24,07,29,11.20
2011,05,24,07,30,11.30
2011,05,24,07,31,11.30
2011,05,24,07,32,11.30
2011,05,24,07,33,11.30
2011,05,24,07,34,11.40
2011,05,24,07,35,11.40
2011,05,24,07,36,11.40
2011,05,24,07,37,11.40
2011,05,24,07,38,11.40
2011,05,24,07,39,11.40
2011,05,24,07,40,11.40
2011,05,24,07,41,11.40
2011,05,24,07,42,11.50
2011,05,24,07,43,11.60
2011,05,24,07,44,11.60
2011,05,24,07,45,11.70
2011,05,24,07,46,11.70
2011,05,24,07,47,11.80
2011,05,24,07,48,11.80
2011,05,24,07,49,11.80
2011,05,24,07,50,11.80
2011,05,24,07,51,11.70
2011,05,24,07,52,11.70
2011,05,24,07,53,11.70
2011,05,24,07,54,11.70
2011,05,24,07,55,11.70
2011,05,24,07,56,11.70
2011,05,24,07,57,11.70
2011,05,24,07,58,11.70
2011,05,24,07,59,11.70
2011,05,24,08,00,11.70
2011,05,24,08,01,11.70
2011,05,24,08,02,11.70
2011,05,24,08,03,11.70
2011,05,24,08,04,11.80
2011,05,24,08,05,11.80
2011,05,24,08,06,11.80
2011,05,24,08,07,11.90
2011,05,24,08,08,12.00
2011,05,24,08,09,12.00
2011,05,24,08,10,12.10
2011,05,24,08,11,12.20
2011,05,24,08,12,12.20
2011,05,24,08,13,12.30
2011,05,24,08,14,12.30
2011,05,24,08,15,12.30
2011,05,24,08,16,12.30
2011,05,24,08,17,12.40
2011,05,24,08,18,12.40
2011,05,24,08,19,12.50
2011,05,24,08,20,12.60
2011,05,24,08,21,12.60
2011,05,24,08,22,12.60
2011,05,24,08,23,12.60
2011,05,24,08,24,12.60
2011,05,24,08,25,12.60
2011,05,24,08,26,12.60
2011,05,24,08,27,12.60
2011,05,24,08,28,12.70
2011,05,24,08,29,12.80
2011,05,24,08,30,12.90
2011,05,24,08,31,12.90
2011,05,24,08,32,12.90
2011,05,24,08,33,12.90
2011,05,24,08,34,13.00
2011,05,24,08,35,13.00
2011,05,24,08,36,13.10
2011,05,24,08,37,13.10
2011,05,24,08,38,13.10
2011,05,24,08,39,13.20
2011,05,24,08,40,13.30
2011,05,24,08,41,13.30
2011,05,24,08,42,13.30
2011,05,24,08,43,13.30
2011,05,24,08,44,13.30
2011,05,24,08,45,13.30
2011,05,24,08,46,13.30
2011,05,24,08,47,13.40
2011,05,24,08,48,13.40
2011,05,24,08,49,13.40
2011,05,24,08,50,13.40
2011,05,24,08,51,13.40
2011,05,24,08,52,13.40
2011,05,24,08,53,13.40
2011,05,24,08,54,13.50
2011,05,24,08,55,13.60
2011,05,24,08,56,13.60
2011,05,24,08,57,13.70
2011,05,24,08,58,13.80
2011,05,24,08,59,13.80
2011,05,24,09,00,13.90
2011,05,24,09,01,14.00
2011,05,24,09,02,14.10
2011,05,24,09,03,14.20
2011,05,24,09,04,14.30
2011,05,24,09,05,14.30
2011,05,24,09,06,14.40
2011,05,24,09,07,14.50
2011,05,24,09,08,14.50
2011,05,24,09,09,14.60
2011,05,24,09,10,14.60
2011,05,24,09,11,14.60
2011,05,24,09,12,14.60
2011,05,24,09,13,14.60
2011,05,24,09,14,14.60
2011,05,24,09,15,14.60
2011,05,24,09,16,14.50
2011,05,24,09,17,14.50
2011,05,24,09,18,14.60
2011,05,24,09,19,14.60
2011,05,24,09,20,14.60
2011,05,24,09,21,14.60
2011,05,24,09,22,14.70
2011,05,24,09,23,14.70
2011,05,24,09,24,14.70
2011,05,24,09,25,14.60
2011,05,24,09,26,14.50
2011,05,24,09,27,14.50
2011,05,24,09,28,14.40
2011,05,24,09,29,14.40
2011,05,24,09,30,14.50
2011,05,24,09,31,14.60
2011,05,24,09,32,14.70
2011,05,24,09,33,14.70
2011,05,24,09,34,14.70
2011,05,24,09,35,14.80
2011,05,24,09,36,14.80
2011,05,24,09,37,14.90
2011,05,24,09,38,14.90
2011,05,24,09,39,15.00
2011,05,24,09,40,15.00
2011,05,24,09,41,15.10
2011,05,24,09,42,15.20
2011,05,24,09,43,15.30
2011,05,24,09,44,15.30
2011,05,24,09,45,15.30
2011,05,24,09,46,15.20
2011,05,24,09,47,15.00
2011,05,24,09,48,14.80
2011,05,24,09,49,14.60
2011,05,24,09,50,14.60
2011,05,24,09,51,14.60
2011,05,24,09,52,14.50
2011,05,24,09,53,14.50
2011,05,24,09,54,14.60
2011,05,24,09,55,14.60
2011,05,24,09,56,14.60
2011,05,24,09,57,14.50
2011,05,24,09,58,14.40
2011,05,24,09,59,14.30
2011,05,24,10,00,14.20
2011,05,24,10,01,14.10
2011,05,24,10,02,14.00
2011,05,24,10,03,13.90
2011,05,24,10,04,13.90
2011,05,24,10,05,13.90
2011,05,24,10,06,13.90
2011,05,24,10,07,13.90
2011,05,24,10,08,14.00
2011,05,24,10,09,14.00
2011,05,24,10,10,14.10
2011,05,24,10,11,14.10
2011,05,24,10,12,14.20
2011,05,24,10,13,14.20
2011,05,24,10,14,14.10
2011,05,24,10,15,14.10
2011,05,24,10,16,14.10
2011,05,24,10,17,14.10
2011,05,24,10,18,14.20
2011,05,24,10,19,14.30
2011,05,24,10,20,14.50
2011,05,24,10,21,14.60
2011,05,24,10,22,14.70
2011,05,24,10,23,14.70
2011,05,24,10,24,14.70
2011,05,24,10,25,14.80
2011,05,24,10,26,14.80
2011,05,24,10,27,14.80
2011,05,24,10,28,14.70
2011,05,24,10,29,14.50
2011,05,24,10,30,14.50
2011,05,24,10,31,14.40
2011,05,24,10,32,14.40
2011,05,24,10,33,14.40
2011,05,24,10,34,14.40
2011,05,24,10,35,14.40
2011,05,24,10,36,14.50
2011,05,24,10,37,14.50
2011,05,24,10,38,14.50
2011,05,24,10,39,14.60
2011,05,24,10,40,14.50
2011,05,24,10,41,14.50
2011,05,24,10,42,14.40
2011,05,24,10,43,14.40
2011,05,24,10,44,14.30
2011,05,24,10,45,14.30
2011,05,24,10,46,14.30
2011,05,24,10,47,14.30
2011,05,24,10,48,14.30
2011,05,24,10,49,14.20
2011,05,24,10,50,14.20
2011,05,24,10,51,14.10
2011,05,24,10,52,14.10
2011,05,24,10,53,14.10
2011,05,24,10,54,14.10
2011,05,24,10,55,14.10
2011,05,24,10,56,14.10
2011,05,24,10,57,14.00
2011,05,24,10,58,14.00
2011,05,24,10,59,13.90
2011,05,24,11,00,13.90
2011,05,24,11,01,13.80
2011,05,24,11,02,13.80
2011,05,24,11,03,13.80
2011,05,24,11,04,13.90
2011,05,24,11,05,13.90
2011,05,24,11,06,13.80
2011,05,24,11,07,13.80
2011,05,24,11,08,13.80
2011,05,24,11,09,13.80
2011,05,24,11,10,13.90
2011,05,24,11,11,13.90
2011,05,24,11,12,13.90
2011,05,24,11,13,13.90
2011,05,24,11,14,14.00
2011,05,24,11,15,14.00
2011,05,24,11,16,14.00
2011,05,24,11,17,14.00
2011,05,24,11,18,14.00
2011,05,24,11,19,14.00
2011,05,24,11,20,14.10
2011,05,24,11,21,14.10
2011,05,24,11,22,14.10
2011,05,24,11,23,14.10
2011,05,24,11,24,14.10
2011,05,24,11,25,14.00
2011,05,24,11,26,13.90
2011,05,24,11,27,13.90
2011,05,24,11,28,13.90
2011,05,24,11,29,13.90
2011,05,24,11,30,13.90
2011,05,24,11,31,13.90
2011,05,24,11,32,14.00
2011,05,24,11,33,14.00
2011,05,24,11,34,14.00
2011,05,24,11,35,14.00
2011,05,24,11,36,14.00
2011,05,24,11,37,14.00
2011,05,24,11,38,14.00
2011,05,24,11,39,13.90
2011,05,24,11,40,13.90
2011,05,24,11,41,13.80
2011,05,24,11,42,13.80
2011,05,24,11,43,13.80
2011,05,24,11,44,13.80
2011,05,24,11,45,13.90
2011,05,24,11,46,14.00
2011,05,24,11,47,14.10
2011,05,24,11,48,14.20
2011,05,24,11,49,14.30
2011,05,24,11,50,14.30
2011,05,24,11,51,14.30
2011,05,24,11,52,14.30
2011,05,24,11,53,14.20
2011,05,24,11,54,14.20
2011,05,24,11,55,14.20
2011,05,24,11,56,14.10
2011,05,24,11,57,14.10
2011,05,24,11,58,14.00
2011,05,24,11,59,13.90
2011,05,24,12,00,13.80
2011,05,24,12,01,13.90
2011,05,24,12,02,14.10
2011,05,24,12,03,14.20
2011,05,24,12,04,14.30
2011,05,24,12,05,14.40
2011,05,24,12,06,14.40
2011,05,24,12,07,14.40
2011,05,24,12,08,14.50
2011,05,24,12,09,14.50
2011,05,24,12,10,14.50
2011,05,24,12,11,14.50
2011,05,24,12,12,14.60
2011,05,24,12,13,14.70
2011,05,24,12,14,14.70
2011,05,24,12,15,14.80
2011,05,24,12,16,14.80
2011,05,24,12,17,14.70
2011,05,24,12,18,14.60
2011,05,24,12,19,14.40
2011,05,24,12,20,14.20
2011,05,24,12,21,14.10
2011,05,24,12,22,13.90
2011,05,24,12,23,13.70
2011,05,24,12,24,13.60
2011,05,24,12,25,13.60
2011,05,24,12,26,13.60
2011,05,24,12,27,13.60
2011,05,24,12,28,13.60
2011,05,24,12,29,13.70
2011,05,24,12,30,13.70
2011,05,24,12,31,13.80
2011,05,24,12,32,13.80
2011,05,24,12,33,13.80
2011,05,24,12,34,13.80
2011,05,24,12,35,13.80
2011,05,24,12,36,13.80
2011,05,24,12,37,13.90
2011,05,24,12,38,14.00
2011,05,24,12,39,14.10
2011,05,24,12,40,14.20
2011,05,24,12,41,14.20
2011,05,24,12,42,14.20
2011,05,24,12,43,14.20
2011,05,24,12,44,14.30
2011,05,24,12,45,14.30
2011,05,24,12,46,14.40
2011,05,24,12,47,14.40
2011,05,24,12,48,14.40
2011,05,24,12,49,14.40
2011,05,24,12,50,14.30
2011,05,24,12,51,14.20
2011,05,24,12,52,14.10
2011,05,24,12,53,14.20
2011,05,24,12,54,14.20
2011,05,24,12,55,14.20
2011,05,24,12,56,14.10
2011,05,24,12,57,14.10
2011,05,24,12,58,14.10
2011,05,24,12,59,14.10
2011,05,24,13,00,14.10
2011,05,24,13,01,14.00
2011,05,24,13,02,14.00
2011,05,24,13,03,14.00
2011,05,24,13,04,13.90
2011,05,24,13,05,13.90
2011,05,24,13,06,13.80
2011,05,24,13,07,13.80
2011,05,24,13,08,13.80
2011,05,24,13,09,13.80
2011,05,24,13,10,13.80
2011,05,24,13,11,13.80
2011,05,24,13,12,13.70
2011,05,24,13,13,13.70
2011,05,24,13,14,13.70
2011,05,24,13,15,13.80
2011,05,24,13,16,13.70
2011,05,24,13,17,13.70
2011,05,24,13,18,13.70
2011,05,24,13,19,13.70
2011,05,24,13,20,13.60
2011,05,24,13,21,13.50
2011,05,24,13,22,13.50
2011,05,24,13,23,13.40
2011,05,24,13,24,13.40
2011,05,24,13,25,13.50
2011,05,24,13,26,13.50
2011,05,24,13,27,13.60
2011,05,24,13,28,13.60
2011,05,24,13,29,13.60
2011,05,24,13,30,13.60
2011,05,24,13,31,13.60
2011,05,24,13,32,13.50
2011,05,24,13,33,13.50
2011,05,24,13,34,13.40
2011,05,24,13,35,13.40
2011,05,24,13,36,13.40
2011,05,24,13,37,13.50
2011,05,24,13,38,13.40
2011,05,24,13,39,13.40
2011,05,24,13,40,13.40
2011,05,24,13,41,13.40
2011,05,24,13,42,13.50
2011,05,24,13,43,13.50
2011,05,24,13,44,13.50
2011,05,24,13,45,13.50
2011,05,24,13,46,13.40
2011,05,24,13,47,13.20
2011,05,24,13,48,13.10
2011,05,24,13,49,12.90
2011,05,24,13,50,12.80
2011,05,24,13,51,12.80
2011,05,24,13,52,12.80
2011,05,24,13,53,12.80
2011,05,24,13,54,12.80
2011,05,24,13,55,12.90
2011,05,24,13,56,12.90
2011,05,24,13,57,12.90
2011,05,24,13,58,12.90
2011,05,24,13,59,13.00
2011,05,24,14,00,12.90
2011,05,24,14,01,12.90
2011,05,24,14,02,12.80
2011,05,24,14,03,12.80
2011,05,24,14,04,12.80
2011,05,24,14,05,12.80
2011,05,24,14,06,12.80
2011,05,24,14,07,12.80
2011,05,24,14,08,12.80
2011,05,24,14,09,12.90
2011,05,24,14,10,12.90
2011,05,24,14,11,12.90
2011,05,24,14,12,12.70
2011,05,24,14,13,12.70
2011,05,24,14,14,12.70
2011,05,24,14,15,12.60
2011,05,24,14,16,12.60
2011,05,24,14,17,12.70
2011,05,24,14,18,12.80
2011,05,24,14,19,12.90
2011,05,24,14,20,13.00
2011,05,24,14,21,13.00
2011,05,24,14,22,13.10
2011,05,24,14,23,13.10
2011,05,24,14,24,13.10
2011,05,24,14,25,13.10
2011,05,24,14,26,13.10
2011,05,24,14,27,13.00
2011,05,24,14,28,12.90
2011,05,24,14,29,12.80
2011,05,24,14,30,12.80
2011,05,24,14,31,12.90
2011,05,24,14,32,12.90
2011,05,24,14,33,13.00
2011,05,24,14,34,13.00
2011,05,24,14,35,13.10
2011,05,24,14,36,13.00
2011,05,24,14,37,12.90
2011,05,24,14,38,13.00
2011,05,24,14,39,13.00
2011,05,24,14,40,13.00
2011,05,24,14,41,13.10
2011,05,24,14,42,13.10
2011,05,24,14,43,13.20
2011,05,24,14,44,13.20
2011,05,24,14,45,13.20
2011,05,24,14,46,13.30
2011,05,24,14,47,13.30
2011,05,24,14,48,13.40
2011,05,24,14,49,13.40
2011,05,24,14,50,13.40
2011,05,24,14,51,13.30
2011,05,24,14,52,13.30
2011,05,24,14,53,13.30
2011,05,24,14,54,13.30
2011,05,24,14,55,13.30
2011,05,24,14,56,13.30
2011,05,24,14,57,13.40
2011,05,24,14,58,13.40
2011,05,24,14,59,13.40
2011,05,24,15,00,13.40
2011,05,24,15,01,13.40
2011,05,24,15,02,13.40
2011,05,24,15,03,13.40
2011,05,24,15,04,13.30
2011,05,24,15,05,13.20
2011,05,24,15,06,13.10
2011,05,24,15,07,13.10
2011,05,24,15,08,13.10
2011,05,24,15,09,13.20
2011,05,24,15,10,13.20
2011,05,24,15,11,13.30
2011,05,24,15,12,13.40
2011,05,24,15,13,13.50
2011,05,24,15,14,13.50
2011,05,24,15,15,13.60
2011,05,24,15,16,13.60
2011,05,24,15,17,13.70
2011,05,24,15,18,13.70
2011,05,24,15,19,13.60
2011,05,24,15,20,13.70
2011,05,24,15,21,13.70
2011,05,24,15,22,13.80
2011,05,24,15,23,13.80
2011,05,24,15,24,13.80
2011,05,24,15,25,13.90
2011,05,24,15,26,13.90
2011,05,24,15,27,14.00
2011,05,24,15,28,14.10
2011,05,24,15,29,14.00
2011,05,24,15,30,14.00
2011,05,24,15,31,14.00
2011,05,24,15,32,14.10
2011,05,24,15,33,14.10
2011,05,24,15,34,14.20
2011,05,24,15,35,14.20
2011,05,24,15,36,14.20
2011,05,24,15,37,14.20
2011,05,24,15,38,14.20
2011,05,24,15,39,14.30
2011,05,24,15,40,14.30
2011,05,24,15,41,14.30
2011,05,24,15,42,14.30
2011,05,24,15,43,14.40
2011,05,24,15,44,14.40
2011,05,24,15,45,14.30
2011,05,24,15,46,14.10
2011,05,24,15,47,14.00
2011,05,24,15,48,13.90
2011,05,24,15,49,13.80
2011,05,24,15,50,13.80
2011,05,24,15,51,13.70
2011,05,24,15,52,13.60
2011,05,24,15,53,13.50
2011,05,24,15,54,13.50
2011,05,24,15,55,13.50
2011,05,24,15,56,13.60
2011,05,24,15,57,13.60
2011,05,24,15,58,13.60
2011,05,24,15,59,13.60
2011,05,24,16,00,13.50
2011,05,24,16,01,13.50
2011,05,24,16,02,13.60
2011,05,24,16,03,13.70
2011,05,24,16,04,13.60
2011,05,24,16,05,13.60
2011,05,24,16,06,13.50
2011,05,24,16,07,13.50
2011,05,24,16,08,13.40
2011,05,24,16,09,13.40
2011,05,24,16,10,13.40
2011,05,24,16,11,13.50
2011,05,24,16,12,13.50
2011,05,24,16,13,13.60
2011,05,24,16,14,13.60
2011,05,24,16,15,13.60
2011,05,24,16,16,13.60
2011,05,24,16,17,13.60
2011,05,24,16,18,13.60
2011,05,24,16,19,13.60
2011,05,24,16,20,13.60
2011,05,24,16,21,13.50
2011,05,24,16,22,13.50
2011,05,24,16,23,13.40
2011,05,24,16,24,13.30
2011,05,24,16,25,13.20
2011,05,24,16,26,13.20
2011,05,24,16,27,13.20
2011,05,24,16,28,13.20
2011,05,24,16,29,13.30
2011,05,24,16,30,13.30
2011,05,24,16,31,13.40
2011,05,24,16,32,13.40
2011,05,24,16,33,13.50
2011,05,24,16,34,13.60
2011,05,24,16,35,13.60
2011,05,24,16,36,13.60
2011,05,24,16,37,13.70
2011,05,24,16,38,13.70
2011,05,24,16,39,13.60
2011,05,24,16,40,13.60
2011,05,24,16,41,13.50
2011,05,24,16,42,13.40
2011,05,24,16,43,13.40
2011,05,24,16,44,13.50
2011,05,24,16,45,13.50
2011,05,24,16,46,13.50
2011,05,24,16,47,13.60
2011,05,24,16,48,13.80
2011,05,24,16,49,13.90
2011,05,24,16,50,14.00
2011,05,24,16,51,14.10
2011,05,24,16,52,14.20
2011,05,24,16,53,14.20
2011,05,24,16,54,14.30
2011,05,24,16,55,14.30
2011,05,24,16,56,14.20
2011,05,24,16,57,14.20
2011,05,24,16,58,14.20
2011,05,24,16,59,14.10
2011,05,24,17,00,14.20
2011,05,24,17,01,14.20
2011,05,24,17,02,14.20
2011,05,24,17,03,14.10
2011,05,24,17,04,14.10
2011,05,24,17,05,14.10
2011,05,24,17,06,14.00
2011,05,24,17,07,14.00
2011,05,24,17,08,13.90
2011,05,24,17,09,13.90
2011,05,24,17,10,13.90
2011,05,24,17,11,13.90
2011,05,24,17,12,13.90
2011,05,24,17,13,13.90
2011,05,24,17,14,13.90
2011,05,24,17,15,13.90
2011,05,24,17,16,13.90
2011,05,24,17,17,13.90
2011,05,24,17,18,13.90
2011,05,24,17,19,13.90
2011,05,24,17,20,13.90
2011,05,24,17,21,13.90
2011,05,24,17,22,13.80
2011,05,24,17,23,13.80
2011,05,24,17,24,13.70
2011,05,24,17,25,13.70
2011,05,24,17,26,13.80
2011,05,24,17,27,13.80
2011,05,24,17,28,13.80
2011,05,24,17,29,13.90
2011,05,24,17,30,14.00
2011,05,24,17,31,14.00
2011,05,24,17,32,14.10
2011,05,24,17,33,14.10
2011,05,24,17,34,14.10
2011,05,24,17,35,14.00
2011,05,24,17,36,14.00
2011,05,24,17,37,13.90